Time,TemperatureF,DewpointF,PressureIn,WindDirection,WindDirectionDegrees,WindSpeedMPH,WindSpeedGustMPH,Humidity,HourlyPrecipIn,Conditions,Clouds,dailyrainin,SoftwareType,DateUTC
2013-05-13 00:01:00,40.6,34.3,29.92,North,10,0.0,0.0,78,0.00,CLR,SKC,0.00,WeatherDisplay:10.37,2013-05-13 04:01:00,
2013-05-13 00:06:00,40.5,34.2,29.92,North,10,0.0,0.0,78,0.00,CLR,SKC,0.00,WeatherDisplay:10.37,2013-05-13 04:06:00,
2013-05-13 00:11:00,40.4,34.4,29.92,North,10,0.0,0.0,79,0.00,CLR,SKC,0.00,WeatherDisplay:10.37,2013-05-13 04:11:00,
2013-05-13 00:16:00,40.3,34.6,29.92,North,10,0.0,0.0,80,0.00,CLR,SKC,0.00,WeatherDisplay:10.37,2013-05-13 04:16:00,
2013-05-13 00:21:00,40.1,34.7,29.92,North,10,0.0,0.0,81,0.00,CLR,SKC,0.00,WeatherDisplay:10.37,2013-05-13 04:21:00,
2013-05-13 00:26:00,40.0,34.6,29.92,North,10,0.0,0.0,81,0.00,CLR,SKC,0.00,WeatherDisplay:10.37,2013-05-13 04:26:00,
2013-05-13 00:31:00,39.8,34.1,29.92,North,10,0.0,0.0,80,0.00,CLR,SKC,0.00,WeatherDisplay:10.37,2013-05-13 04:31:00,
2013-05-13 00:36:00,39.7,34.0,29.92,North,10,0.0,0.0,80,0.00,CLR,SKC,0.00,WeatherDisplay:10.37,2013-05-13 04:36:00,
2013-05-13 00:41:00,39.6,34.6,29.92,North,10,0.0,0.0,82,0.00,CLR,SKC,0.00,WeatherDisplay:10.37,2013-05-13 04:41:00,
2013-05-13 00:46:00,39.4,34.7,29.92,North,10,0.0,0.0,83,0.00,CLR,SKC,0.00,WeatherDisplay:10.37,2013-05-13 04:46:00,
2013-05-13 00:51:00,39.2,34.8,29.92,North,10,0.0,0.0,84,0.00,CLR,SKC,0.00,WeatherDisplay:10.37,2013-05-13 04:51:00,
2013-05-13 00:56:00,39.0,34.6,29.92,North,10,0.0,0.0,84,0.00,CLR,SKC,0.00,WeatherDisplay:10.37,2013-05-13 04:56:00,
2013-05-13 01:01:00,38.9,34.5,29.92,North,10,0.0,0.0,84,0.00,CLR,SKC,0.00,WeatherDisplay:10.37,2013-05-13 05:01:00,
2013-05-13 01:06:00,38.8,34.4,29.92,North,10,0.0,0.0,84,0.00,CLR,SKC,0.00,WeatherDisplay:10.37,2013-05-13 05:06:00,
2013-05-13 01:11:00,38.6,34.2,29.92,North,10,0.0,0.0,84,0.00,CLR,SKC,0.00,WeatherDisplay:10.37,2013-05-13 05:11:00,
2013-05-13 01:16:00,38.5,34.4,29.92,North,10,0.0,0.0,85,0.00,CLR,SKC,0.00,WeatherDisplay:10.37,2013-05-13 05:16:00,
2013-05-13 01:21:00,38.3,34.2,29.92,North,10,0.0,0.0,85,0.00,CLR,SKC,0.00,WeatherDisplay:10.37,2013-05-13 05:21:00,
2013-05-13 01:26:00,38.3,33.9,29.92,North,10,0.0,0.0,84,0.00,CLR,SKC,0.00,WeatherDisplay:10.37,2013-05-13 05:26:00,
2013-05-13 01:31:00,38.2,33.8,29.92,North,10,0.0,0.0,84,0.00,CLR,SKC,0.00,WeatherDisplay:10.37,2013-05-13 05:31:00,
2013-05-13 01:36:00,38.3,33.9,29.92,North,10,0.0,0.0,84,0.00,CLR,SKC,0.00,WeatherDisplay:10.37,2013-05-13 05:36:00,
2013-05-13 01:41:00,38.3,33.9,29.92,North,10,0.0,0.0,84,0.00,CLR,SKC,0.00,WeatherDisplay:10.37,2013-05-13 05:41:00,
2013-05-13 01:46:00,38.4,33.7,29.92,North,10,0.0,0.0,83,0.00,CLR,SKC,0.00,WeatherDisplay:10.37,2013-05-13 05:46:00,
2013-05-13 01:51:00,38.3,33.6,29.92,North,10,0.0,0.0,83,0.00,CLR,SKC,0.00,WeatherDisplay:10.37,2013-05-13 05:51:00,
2013-05-13 01:56:00,38.4,33.4,29.92,North,10,0.0,0.0,82,0.00,CLR,SKC,0.00,WeatherDisplay:10.37,2013-05-13 05:56:00,
2013-05-13 02:01:00,38.4,33.4,29.92,North,10,0.0,0.0,82,0.00,CLR,SKC,0.00,WeatherDisplay:10.37,2013-05-13 06:01:00,
2013-05-13 02:06:00,38.4,33.1,29.92,North,10,0.0,0.0,81,0.00,CLR,SKC,0.00,WeatherDisplay:10.37,2013-05-13 06:06:00,
2013-05-13 02:11:00,38.4,32.8,29.92,North,10,0.0,0.0,80,0.00,CLR,SKC,0.00,WeatherDisplay:10.37,2013-05-13 06:11:00,
2013-05-13 02:16:00,38.5,32.9,29.92,North,10,0.0,0.0,80,0.00,CLR,SKC,0.00,WeatherDisplay:10.37,2013-05-13 06:16:00,
2013-05-13 02:21:00,38.6,33.0,29.92,North,10,0.0,0.0,80,0.00,CLR,SKC,0.00,WeatherDisplay:10.37,2013-05-13 06:21:00,
2013-05-13 02:26:00,38.6,32.6,29.92,North,10,0.0,0.0,79,0.00,CLR,SKC,0.00,WeatherDisplay:10.37,2013-05-13 06:26:00,
2013-05-13 02:31:00,38.7,33.1,29.92,North,10,0.0,0.0,80,0.00,CLR,SKC,0.00,WeatherDisplay:10.37,2013-05-13 06:31:00,
2013-05-13 02:36:00,38.8,33.2,29.93,North,10,0.0,0.0,80,0.00,CLR,SKC,0.00,WeatherDisplay:10.37,2013-05-13 06:36:00,
2013-05-13 02:41:00,39.0,33.0,29.93,North,10,0.0,0.0,79,0.00,CLR,SKC,0.00,WeatherDisplay:10.37,2013-05-13 06:41:00,
2013-05-13 02:46:00,39.1,33.1,29.93,North,10,0.0,0.0,79,0.00,CLR,SKC,0.00,WeatherDisplay:10.37,2013-05-13 06:46:00,
2013-05-13 02:51:00,39.2,32.9,29.93,North,10,1.1,0.0,78,0.00,CLR,SKC,0.00,WeatherDisplay:10.37,2013-05-13 06:51:00,
2013-05-13 02:56:00,39.3,33.0,29.93,North,10,0.0,0.0,78,0.00,CLR,SKC,0.00,WeatherDisplay:10.37,2013-05-13 06:56:00,
2013-05-13 03:01:00,39.3,32.7,29.93,North,10,0.0,0.0,77,0.00,CLR,SKC,0.00,WeatherDisplay:10.37,2013-05-13 07:01:00,
2013-05-13 03:06:00,39.4,32.8,29.93,North,10,0.0,0.0,77,0.00,CLR,SKC,0.00,WeatherDisplay:10.37,2013-05-13 07:06:00,
2013-05-13 03:11:00,39.4,32.8,29.93,North,10,0.0,0.0,77,0.00,CLR,SKC,0.00,WeatherDisplay:10.37,2013-05-13 07:11:00,
2013-05-13 03:16:00,39.5,33.2,29.93,North,10,0.0,0.0,78,0.00,CLR,SKC,0.00,WeatherDisplay:10.37,2013-05-13 07:16:00,
2013-05-13 03:21:00,39.6,33.0,29.93,North,10,0.0,0.0,77,0.00,CLR,SKC,0.00,WeatherDisplay:10.37,2013-05-13 07:21:00,
2013-05-13 03:26:00,39.7,33.1,29.93,North,10,0.0,0.0,77,0.00,CLR,SKC,0.00,WeatherDisplay:10.37,2013-05-13 07:26:00,
2013-05-13 03:31:00,39.9,33.6,29.93,ENE,65,0.0,0.3,78,0.00,CLR,SKC,0.00,WeatherDisplay:10.37,2013-05-13 07:31:00,
2013-05-13 03:36:00,40.2,33.6,29.93,ENE,65,0.0,0.0,77,0.00,CLR,SKC,0.00,WeatherDisplay:10.37,2013-05-13 07:36:00,
2013-05-13 03:41:00,40.4,33.8,29.93,ENE,65,0.0,0.0,77,0.00,CLR,SKC,0.00,WeatherDisplay:10.37,2013-05-13 07:41:00,
2013-05-13 03:46:00,40.6,34.0,29.93,ENE,65,0.0,0.0,77,0.00,CLR,SKC,0.00,WeatherDisplay:10.37,2013-05-13 07:46:00,
2013-05-13 03:51:00,40.7,34.0,29.93,ENE,65,0.0,0.0,77,0.00,CLR,SKC,0.00,WeatherDisplay:10.37,2013-05-13 07:51:00,
2013-05-13 03:56:00,40.7,34.4,29.93,ENE,65,0.0,0.0,78,0.00,CLR,SKC,0.00,WeatherDisplay:10.37,2013-05-13 07:56:00,
2013-05-13 04:01:00,40.7,34.4,29.93,ENE,65,0.0,0.0,78,0.00,CLR,SKC,0.00,WeatherDisplay:10.37,2013-05-13 08:01:00,
2013-05-13 04:06:00,40.7,34.4,29.93,ENE,65,0.0,0.0,78,0.00,CLR,SKC,0.00,WeatherDisplay:10.37,2013-05-13 08:06:00,
2013-05-13 04:11:00,40.8,34.1,29.93,ENE,65,0.0,0.0,77,0.00,CLR,SKC,0.00,WeatherDisplay:10.37,2013-05-13 08:11:00,
2013-05-13 04:16:00,40.7,33.7,29.93,ENE,65,0.0,0.0,76,0.00,CLR,SKC,0.00,WeatherDisplay:10.37,2013-05-13 08:16:00,
2013-05-13 04:21:00,40.7,34.0,29.93,ENE,65,0.0,0.0,77,0.00,CLR,SKC,0.00,WeatherDisplay:10.37,2013-05-13 08:21:00,
2013-05-13 04:26:00,40.5,33.9,29.93,ENE,65,0.0,0.0,77,0.00,CLR,SKC,0.00,WeatherDisplay:10.37,2013-05-13 08:26:00,
2013-05-13 04:31:00,40.3,34.0,29.94,ENE,65,0.0,0.0,78,0.00,CLR,SKC,0.00,WeatherDisplay:10.37,2013-05-13 08:31:00,
2013-05-13 04:36:00,40.0,34.0,29.94,ENE,65,0.0,0.0,79,0.00,CLR,SKC,0.00,WeatherDisplay:10.37,2013-05-13 08:36:00,
2013-05-13 04:41:00,39.7,33.7,29.94,ENE,65,0.0,0.0,79,0.00,CLR,SKC,0.00,WeatherDisplay:10.37,2013-05-13 08:41:00,
2013-05-13 04:46:00,39.4,33.7,29.94,ENE,65,0.0,0.0,80,0.00,CLR,SKC,0.00,WeatherDisplay:10.37,2013-05-13 08:46:00,
2013-05-13 04:51:00,39.2,33.5,29.94,ENE,65,0.0,0.0,80,0.00,CLR,SKC,0.00,WeatherDisplay:10.37,2013-05-13 08:51:00,
2013-05-13 04:56:00,39.1,33.5,29.94,ENE,65,0.0,0.0,80,0.00,CLR,SKC,0.00,WeatherDisplay:10.37,2013-05-13 08:56:00,
2013-05-13 05:01:00,38.9,32.9,29.94,ENE,65,0.0,0.0,79,0.00,CLR,SKC,0.00,WeatherDisplay:10.37,2013-05-13 09:01:00,
2013-05-13 05:06:00,38.8,33.2,29.95,ENE,65,0.0,0.0,80,0.00,CLR,SKC,0.00,WeatherDisplay:10.37,2013-05-13 09:06:00,
2013-05-13 05:11:00,38.7,33.1,29.95,ENE,65,0.0,0.0,80,0.00,CLR,SKC,0.00,WeatherDisplay:10.37,2013-05-13 09:11:00,
2013-05-13 05:16:00,38.6,33.0,29.95,ENE,65,0.0,0.0,80,0.00,CLR,SKC,0.00,WeatherDisplay:10.37,2013-05-13 09:16:00,
2013-05-13 05:21:00,38.4,32.8,29.95,ENE,65,0.0,0.0,80,0.00,CLR,SKC,0.00,WeatherDisplay:10.37,2013-05-13 09:21:00,
2013-05-13 05:26:00,38.2,32.6,29.95,ENE,65,0.0,0.0,80,0.00,CLR,SKC,0.00,WeatherDisplay:10.37,2013-05-13 09:26:00,
2013-05-13 05:31:00,38.1,32.5,29.96,ENE,65,0.0,0.0,80,0.00,CLR,SKC,0.00,WeatherDisplay:10.37,2013-05-13 09:31:00,
2013-05-13 05:36:00,38.0,32.4,29.96,ENE,65,0.0,0.0,80,0.00,CLR,SKC,0.00,WeatherDisplay:10.37,2013-05-13 09:36:00,
2013-05-13 05:41:00,37.9,32.0,29.96,ENE,65,0.0,0.0,79,0.00,CLR,SKC,0.00,WeatherDisplay:10.37,2013-05-13 09:41:00,
2013-05-13 05:46:00,37.9,31.3,29.96,NE,53,1.1,0.0,77,0.00,CLR,SKC,0.00,WeatherDisplay:10.37,2013-05-13 09:46:00,
2013-05-13 05:51:00,37.9,31.0,29.96,NE,53,1.1,0.0,76,0.00,CLR,SKC,0.00,WeatherDisplay:10.37,2013-05-13 09:51:00,
2013-05-13 05:56:00,38.2,30.6,29.96,NNE,24,2.3,0.0,74,0.00,CLR,SKC,0.00,WeatherDisplay:10.37,2013-05-13 09:56:00,
2013-05-13 06:01:00,38.5,30.6,29.96,North,350,5.0,5.0,73,0.00,CLR,SKC,0.00,WeatherDisplay:10.37,2013-05-13 10:01:00,
2013-05-13 06:06:00,38.9,30.6,29.97,NNW,348,0.0,0.0,72,0.00,CLR,SKC,0.00,WeatherDisplay:10.37,2013-05-13 10:06:00,
2013-05-13 06:11:00,39.0,30.7,29.97,North,350,0.0,0.0,72,0.00,CLR,SKC,0.00,WeatherDisplay:10.37,2013-05-13 10:11:00,
2013-05-13 06:16:00,39.0,30.7,29.97,North,350,0.0,0.0,72,0.00,CLR,SKC,0.00,WeatherDisplay:10.37,2013-05-13 10:16:00,
2013-05-13 06:21:00,39.1,30.8,29.97,North,350,0.0,0.0,72,0.00,CLR,SKC,0.00,WeatherDisplay:10.37,2013-05-13 10:21:00,
2013-05-13 06:26:00,39.1,30.8,29.98,North,350,0.0,0.0,72,0.00,CLR,SKC,0.00,WeatherDisplay:10.37,2013-05-13 10:26:00,
2013-05-13 06:31:00,39.1,30.8,29.98,North,350,0.0,0.0,72,0.00,CLR,SKC,0.00,WeatherDisplay:10.37,2013-05-13 10:31:00,
2013-05-13 06:36:00,39.0,31.7,29.98,North,350,0.0,0.0,75,0.00,CLR,SKC,0.00,WeatherDisplay:10.37,2013-05-13 10:36:00,
2013-05-13 06:41:00,38.9,32.0,29.98,North,350,0.0,0.0,76,0.00,CLR,SKC,0.00,WeatherDisplay:10.37,2013-05-13 10:41:00,
2013-05-13 06:46:00,38.8,32.2,29.98,North,350,0.0,0.0,77,0.00,CLR,SKC,0.00,WeatherDisplay:10.37,2013-05-13 10:46:00,
2013-05-13 06:51:00,38.8,32.2,29.98,North,350,0.0,0.0,77,0.00,CLR,SKC,0.00,WeatherDisplay:10.37,2013-05-13 10:51:00,
2013-05-13 06:56:00,38.8,33.2,29.98,North,350,0.0,0.0,80,0.00,CLR,SKC,0.00,WeatherDisplay:10.37,2013-05-13 10:56:00,
2013-05-13 07:01:00,38.8,32.5,29.98,North,350,0.0,0.0,78,0.00,CLR,SKC,0.00,WeatherDisplay:10.37,2013-05-13 11:01:00,
2013-05-13 07:06:00,38.8,31.9,29.98,North,350,0.0,0.0,76,0.00,CLR,SKC,0.00,WeatherDisplay:10.37,2013-05-13 11:06:00,
2013-05-13 07:11:00,38.9,31.6,29.99,North,350,0.0,0.0,75,0.00,CLR,SKC,0.00,WeatherDisplay:10.37,2013-05-13 11:11:00,
2013-05-13 07:16:00,39.2,31.6,29.99,North,350,0.0,0.0,74,0.00,CLR,SKC,0.00,WeatherDisplay:10.37,2013-05-13 11:16:00,
2013-05-13 07:21:00,39.5,31.9,29.99,North,350,3.4,3.4,74,0.00,CLR,SKC,0.00,WeatherDisplay:10.37,2013-05-13 11:21:00,
2013-05-13 07:26:00,39.9,31.6,29.99,NNE,32,3.4,3.4,72,0.00,CLR,SKC,0.00,WeatherDisplay:10.37,2013-05-13 11:26:00,
2013-05-13 07:31:00,40.4,31.4,29.99,NNW,344,4.0,4.0,70,0.00,CLR,SKC,0.00,WeatherDisplay:10.37,2013-05-13 11:31:00,
2013-05-13 07:36:00,41.0,32.3,29.99,North,349,2.3,2.3,71,0.00,CLR,SKC,0.00,WeatherDisplay:10.37,2013-05-13 11:36:00,
2013-05-13 07:41:00,41.5,31.7,29.99,NE,36,4.6,4.6,68,0.00,CLR,SKC,0.00,WeatherDisplay:10.37,2013-05-13 11:41:00,
2013-05-13 07:46:00,41.8,32.0,29.99,ENE,71,3.4,3.4,68,0.00,CLR,SKC,0.00,WeatherDisplay:10.37,2013-05-13 11:46:00,
2013-05-13 07:51:00,42.2,30.9,29.99,NE,40,10.3,10.3,64,0.00,CLR,SKC,0.00,WeatherDisplay:10.37,2013-05-13 11:51:00,
2013-05-13 07:56:00,42.6,31.7,29.99,NNE,22,4.6,4.6,65,0.00,CLR,SKC,0.00,WeatherDisplay:10.37,2013-05-13 11:56:00,
2013-05-13 08:01:00,43.0,32.4,29.99,NNE,22,1.1,0.0,66,0.00,CLR,SKC,0.00,WeatherDisplay:10.37,2013-05-13 12:01:00,
2013-05-13 08:06:00,43.4,31.6,30.00,NNE,19,4.0,4.0,63,0.00,CLR,SKC,0.00,WeatherDisplay:10.37,2013-05-13 12:06:00,
2013-05-13 08:11:00,43.4,31.2,30.00,NNW,331,4.6,4.6,62,0.00,CLR,SKC,0.00,WeatherDisplay:10.37,2013-05-13 12:11:00,
2013-05-13 08:16:00,43.3,31.9,30.00,NNE,22,2.0,0.0,64,0.00,CLR,SKC,0.00,WeatherDisplay:10.37,2013-05-13 12:16:00,
2013-05-13 08:21:00,43.2,31.4,30.00,NNE,24,2.3,0.0,63,0.00,CLR,SKC,0.00,WeatherDisplay:10.37,2013-05-13 12:21:00,
2013-05-13 08:26:00,43.3,31.9,30.00,NNE,24,0.0,0.3,64,0.00,CLR,SKC,0.00,WeatherDisplay:10.37,2013-05-13 12:26:00,
2013-05-13 08:31:00,43.9,32.9,30.00,NNE,30,2.0,2.6,65,0.00,CLR,SKC,0.00,WeatherDisplay:10.37,2013-05-13 12:31:00,
2013-05-13 08:36:00,44.3,32.5,30.00,NE,36,5.8,5.8,63,0.00,CLR,SKC,0.00,WeatherDisplay:10.37,2013-05-13 12:36:00,
2013-05-13 08:41:00,44.7,32.1,30.00,NW,326,9.2,9.2,61,0.00,CLR,SKC,0.00,WeatherDisplay:10.37,2013-05-13 12:41:00,
2013-05-13 08:46:00,45.0,32.3,30.00,NE,38,5.0,5.0,61,0.00,CLR,SKC,0.00,WeatherDisplay:10.37,2013-05-13 12:46:00,
2013-05-13 08:51:00,45.4,31.9,30.00,NE,51,5.8,0.0,59,0.00,CLR,SKC,0.00,WeatherDisplay:10.37,2013-05-13 12:51:00,
2013-05-13 08:56:00,45.2,31.3,30.00,NE,39,6.9,6.9,58,0.00,CLR,SKC,0.00,WeatherDisplay:10.37,2013-05-13 12:56:00,
2013-05-13 09:01:00,44.7,30.4,30.00,NNE,26,5.8,5.8,57,0.00,CLR,SKC,0.00,WeatherDisplay:10.37,2013-05-13 13:01:00,
2013-05-13 09:06:00,44.6,31.6,30.01,North,355,9.2,9.2,60,0.00,CLR,SKC,0.00,WeatherDisplay:10.37,2013-05-13 13:06:00,
2013-05-13 09:11:00,45.4,31.9,30.01,NNE,30,9.2,9.2,59,0.00,CLR,SKC,0.00,WeatherDisplay:10.37,2013-05-13 13:11:00,
2013-05-13 09:16:00,46.4,32.0,30.01,NNE,30,6.9,6.9,57,0.00,CLR,SKC,0.00,WeatherDisplay:10.37,2013-05-13 13:16:00,
2013-05-13 09:21:00,46.7,30.9,30.01,NE,51,8.0,8.0,54,0.00,CLR,SKC,0.00,WeatherDisplay:10.37,2013-05-13 13:21:00,
2013-05-13 09:26:00,46.4,31.1,30.01,NE,44,6.0,6.0,55,0.00,CLR,SKC,0.00,WeatherDisplay:10.37,2013-05-13 13:26:00,
2013-05-13 09:31:00,46.1,29.9,30.01,NNE,25,6.9,6.9,53,0.00,CLR,SKC,0.00,WeatherDisplay:10.37,2013-05-13 13:31:00,
2013-05-13 09:36:00,46.5,32.1,30.01,NNE,26,9.0,9.0,57,0.00,CLR,SKC,0.00,WeatherDisplay:10.37,2013-05-13 13:36:00,
2013-05-13 09:41:00,47.1,29.9,30.01,WNW,302,11.5,11.5,51,0.00,CLR,SKC,0.00,WeatherDisplay:10.37,2013-05-13 13:41:00,
2013-05-13 09:46:00,47.5,29.8,30.01,NNE,22,6.9,6.9,50,0.00,CLR,SKC,0.00,WeatherDisplay:10.37,2013-05-13 13:46:00,
2013-05-13 09:51:00,47.7,29.5,30.01,NE,51,11.0,11.0,49,0.00,CLR,SKC,0.00,WeatherDisplay:10.37,2013-05-13 13:51:00,
2013-05-13 09:56:00,47.7,27.4,30.00,SSE,150,6.9,6.9,45,0.00,CLR,SKC,0.00,WeatherDisplay:10.37,2013-05-13 13:56:00,
2013-05-13 10:01:00,47.7,28.9,30.01,NW,325,6.9,6.9,48,0.00,CLR,SKC,0.00,WeatherDisplay:10.37,2013-05-13 14:01:00,
2013-05-13 10:06:00,47.9,29.1,30.01,NNE,33,6.9,6.9,48,0.00,CLR,SKC,0.00,WeatherDisplay:10.37,2013-05-13 14:06:00,
2013-05-13 10:11:00,48.5,29.2,30.01,NE,38,4.0,4.0,47,0.00,CLR,SKC,0.00,WeatherDisplay:10.37,2013-05-13 14:11:00,
2013-05-13 10:16:00,48.7,28.8,30.01,NE,45,3.4,3.4,46,0.00,CLR,SKC,0.00,WeatherDisplay:10.37,2013-05-13 14:16:00,
2013-05-13 10:21:00,48.3,29.0,30.01,ENE,62,6.9,6.9,47,0.00,CLR,SKC,0.00,WeatherDisplay:10.37,2013-05-13 14:21:00,
2013-05-13 10:26:00,48.1,28.8,30.01,NW,311,4.0,4.0,47,0.00,CLR,SKC,0.00,WeatherDisplay:10.37,2013-05-13 14:26:00,
2013-05-13 10:31:00,48.3,29.5,30.01,ENE,57,6.9,6.9,48,0.00,CLR,SKC,0.00,WeatherDisplay:10.37,2013-05-13 14:31:00,
2013-05-13 10:36:00,48.3,27.9,30.01,North,355,11.5,11.5,45,0.00,CLR,SKC,0.00,WeatherDisplay:10.37,2013-05-13 14:36:00,
2013-05-13 10:41:00,47.8,26.9,30.01,NNE,31,9.2,9.2,44,0.00,CLR,SKC,0.00,WeatherDisplay:10.37,2013-05-13 14:41:00,
2013-05-13 10:46:00,47.7,27.9,30.02,North,10,12.6,12.6,46,0.00,CLR,SKC,0.00,WeatherDisplay:10.37,2013-05-13 14:46:00,
2013-05-13 10:51:00,47.7,27.9,30.01,NE,49,3.4,3.4,46,0.00,CLR,SKC,0.00,WeatherDisplay:10.37,2013-05-13 14:51:00,
2013-05-13 10:56:00,47.5,27.7,30.02,NW,316,11.5,11.5,46,0.00,CLR,SKC,0.00,WeatherDisplay:10.37,2013-05-13 14:56:00,
2013-05-13 11:01:00,47.2,28.0,30.02,ENE,63,9.2,9.2,47,0.00,CLR,SKC,0.00,WeatherDisplay:10.37,2013-05-13 15:01:00,
2013-05-13 11:06:00,46.8,27.1,30.02,NW,321,5.0,5.0,46,0.00,CLR,SKC,0.00,WeatherDisplay:10.37,2013-05-13 15:06:00,
2013-05-13 11:11:00,47.1,28.9,30.02,NNE,31,10.3,10.3,49,0.00,CLR,SKC,0.00,WeatherDisplay:10.37,2013-05-13 15:11:00,
2013-05-13 11:17:00,47.7,29.5,30.02,NE,36,4.6,4.6,49,0.00,CLR,SKC,0.00,WeatherDisplay:10.37,2013-05-13 15:17:00,
2013-05-13 11:22:00,48.1,28.3,30.02,NE,36,6.9,6.9,46,0.00,CLR,SKC,0.00,WeatherDisplay:10.37,2013-05-13 15:22:00,
2013-05-13 11:27:00,48.3,28.5,30.02,NE,46,6.9,6.9,46,0.00,CLR,SKC,0.00,WeatherDisplay:10.37,2013-05-13 15:27:00,
2013-05-13 11:32:00,48.5,27.6,30.02,NNE,25,10.3,10.3,44,0.00,CLR,SKC,0.00,WeatherDisplay:10.37,2013-05-13 15:32:00,
2013-05-13 11:37:00,48.3,29.0,30.02,NNE,32,6.9,6.9,47,0.00,CLR,SKC,0.00,WeatherDisplay:10.37,2013-05-13 15:37:00,
2013-05-13 11:42:00,48.3,27.4,30.02,NNW,346,8.1,8.1,44,0.00,CLR,SKC,0.00,WeatherDisplay:10.37,2013-05-13 15:42:00,
2013-05-13 11:47:00,48.3,27.9,30.02,North,355,10.3,10.3,45,0.00,CLR,SKC,0.00,WeatherDisplay:10.37,2013-05-13 15:47:00,
2013-05-13 11:52:00,48.8,28.4,30.02,NE,36,6.9,6.9,45,0.00,CLR,SKC,0.00,WeatherDisplay:10.37,2013-05-13 15:52:00,
2013-05-13 11:57:00,49.3,28.8,30.02,NE,47,5.8,5.8,45,0.00,CLR,SKC,0.00,WeatherDisplay:10.37,2013-05-13 15:57:00,
2013-05-13 12:02:00,49.3,28.3,30.02,NNW,334,8.1,8.1,44,0.00,CLR,SKC,0.00,WeatherDisplay:10.37,2013-05-13 16:02:00,
2013-05-13 12:07:00,49.2,27.6,30.02,NE,40,9.2,9.2,43,0.00,CLR,SKC,0.00,WeatherDisplay:10.37,2013-05-13 16:07:00,
2013-05-13 12:12:00,49.6,28.6,30.02,NNE,31,6.0,6.0,44,0.00,CLR,SKC,0.00,WeatherDisplay:10.37,2013-05-13 16:12:00,
2013-05-13 12:17:00,50.0,29.5,30.02,North,9,4.6,4.6,45,0.00,CLR,SKC,0.00,WeatherDisplay:10.37,2013-05-13 16:17:00,
2013-05-13 12:22:00,50.2,28.5,30.02,NNE,26,2.3,2.3,43,0.00,CLR,SKC,0.00,WeatherDisplay:10.37,2013-05-13 16:22:00,
2013-05-13 12:27:00,50.3,28.1,30.02,ENE,58,5.8,5.8,42,0.00,CLR,SKC,0.00,WeatherDisplay:10.37,2013-05-13 16:27:00,
2013-05-13 12:32:00,50.0,27.2,30.01,NE,45,5.8,5.8,41,0.00,CLR,SKC,0.00,WeatherDisplay:10.37,2013-05-13 16:32:00,
2013-05-13 12:37:00,50.3,29.7,30.01,ENE,62,8.1,8.1,45,0.00,CLR,SKC,0.00,WeatherDisplay:10.37,2013-05-13 16:37:00,
2013-05-13 12:42:00,51.3,31.7,30.02,NW,321,8.0,8.0,47,0.00,CLR,SKC,0.00,WeatherDisplay:10.37,2013-05-13 16:42:00,
2013-05-13 12:47:00,51.6,27.4,30.01,NE,54,5.8,5.8,39,0.00,CLR,SKC,0.00,WeatherDisplay:10.37,2013-05-13 16:47:00,
2013-05-13 12:52:00,51.3,27.2,30.02,North,360,11.5,11.5,39,0.00,CLR,SKC,0.00,WeatherDisplay:10.37,2013-05-13 16:52:00,
2013-05-13 12:57:00,50.8,27.9,30.01,NE,40,3.4,4.3,41,0.00,CLR,SKC,0.00,WeatherDisplay:10.37,2013-05-13 16:57:00,
2013-05-13 13:02:00,50.3,26.3,30.02,North,5,5.8,5.8,39,0.00,CLR,SKC,0.00,WeatherDisplay:10.37,2013-05-13 17:02:00,
2013-05-13 13:07:00,49.9,25.3,30.01,North,5,9.2,9.2,38,0.00,CLR,SKC,0.00,WeatherDisplay:10.37,2013-05-13 17:07:00,
2013-05-13 13:12:00,50.1,26.1,30.01,NE,55,8.1,8.1,39,0.00,CLR,SKC,0.00,WeatherDisplay:10.37,2013-05-13 17:12:00,
2013-05-13 13:17:00,50.3,29.7,30.01,NE,38,5.8,5.8,45,0.00,CLR,SKC,0.00,WeatherDisplay:10.37,2013-05-13 17:17:00,
2013-05-13 13:22:00,50.7,27.2,30.01,NNE,13,4.0,4.6,40,0.00,CLR,SKC,0.00,WeatherDisplay:10.37,2013-05-13 17:22:00,
2013-05-13 13:27:00,50.6,25.9,30.01,NNE,14,9.2,9.2,38,0.00,CLR,SKC,0.00,WeatherDisplay:10.37,2013-05-13 17:27:00,
2013-05-13 13:32:00,50.3,26.9,30.01,NW,307,3.4,3.4,40,0.00,CLR,SKC,0.00,WeatherDisplay:10.37,2013-05-13 17:32:00,
2013-05-13 13:37:00,50.3,26.9,30.01,NE,36,9.2,9.2,40,0.00,CLR,SKC,0.00,WeatherDisplay:10.37,2013-05-13 17:37:00,
2013-05-13 13:42:00,50.6,25.9,30.01,NNE,18,6.9,6.9,38,0.00,CLR,SKC,0.00,WeatherDisplay:10.37,2013-05-13 17:42:00,
2013-05-13 13:47:00,50.5,27.0,30.01,NNW,343,6.0,6.0,40,0.00,CLR,SKC,0.00,WeatherDisplay:10.37,2013-05-13 17:47:00,
2013-05-13 13:52:00,50.3,28.1,30.01,NE,42,6.9,6.9,42,0.00,CLR,SKC,0.00,WeatherDisplay:10.37,2013-05-13 17:52:00,
2013-05-13 13:57:00,50.4,29.3,30.01,NE,35,5.0,5.0,44,0.00,CLR,SKC,0.00,WeatherDisplay:10.37,2013-05-13 17:57:00,
2013-05-13 14:02:00,51.3,27.8,30.00,West,267,5.8,5.8,40,0.00,CLR,SKC,0.00,WeatherDisplay:10.37,2013-05-13 18:02:00,
2013-05-13 14:07:00,52.2,32.0,30.01,NNE,33,6.9,6.9,46,0.00,CLR,SKC,0.00,WeatherDisplay:10.37,2013-05-13 18:07:00,
2013-05-13 14:12:00,52.4,29.4,30.01,NNE,26,10.0,10.0,41,0.00,CLR,SKC,0.00,WeatherDisplay:10.37,2013-05-13 18:12:00,
2013-05-13 14:17:00,52.5,29.5,30.00,NE,34,8.1,8.1,41,0.00,CLR,SKC,0.00,WeatherDisplay:10.37,2013-05-13 18:17:00,
2013-05-13 14:22:00,52.6,28.9,30.00,WNW,296,4.6,4.6,40,0.00,CLR,SKC,0.00,WeatherDisplay:10.37,2013-05-13 18:22:00,
2013-05-13 14:27:00,52.5,28.8,30.01,East,82,3.4,3.4,40,0.00,CLR,SKC,0.00,WeatherDisplay:10.37,2013-05-13 18:27:00,
2013-05-13 14:32:00,52.3,28.7,30.00,NNE,21,5.0,5.0,40,0.00,CLR,SKC,0.00,WeatherDisplay:10.37,2013-05-13 18:32:00,
2013-05-13 14:37:00,52.7,29.6,30.00,North,351,8.1,8.1,41,0.00,CLR,SKC,0.00,WeatherDisplay:10.37,2013-05-13 18:37:00,
2013-05-13 14:42:00,53.4,30.3,30.00,NE,53,11.5,11.5,41,0.00,CLR,SKC,0.00,WeatherDisplay:10.37,2013-05-13 18:42:00,
2013-05-13 14:47:00,53.7,28.7,30.00,NNW,331,10.3,10.3,38,0.00,CLR,SKC,0.00,WeatherDisplay:10.37,2013-05-13 18:47:00,
2013-05-13 14:52:00,53.7,29.3,30.00,NW,306,10.3,10.3,39,0.00,CLR,SKC,0.00,WeatherDisplay:10.37,2013-05-13 18:52:00,
2013-05-13 14:57:00,54.0,27.6,29.99,NE,37,6.9,6.9,36,0.00,CLR,SKC,0.00,WeatherDisplay:10.37,2013-05-13 18:57:00,
2013-05-13 15:02:00,53.6,27.3,30.00,NE,50,9.2,9.2,36,0.00,CLR,SKC,0.00,WeatherDisplay:10.37,2013-05-13 19:02:00,
2013-05-13 15:07:00,53.2,27.6,29.99,ESE,110,4.6,4.6,37,0.00,CLR,SKC,0.00,WeatherDisplay:10.37,2013-05-13 19:07:00,
2013-05-13 15:12:00,53.4,30.3,29.99,North,355,3.4,3.4,41,0.00,CLR,SKC,0.00,WeatherDisplay:10.37,2013-05-13 19:12:00,
2013-05-13 15:17:00,54.2,29.1,29.99,NW,317,7.0,7.0,38,0.00,CLR,SKC,0.00,WeatherDisplay:10.37,2013-05-13 19:17:00,
2013-05-13 15:22:00,53.8,28.1,29.99,NNW,336,5.8,5.8,37,0.00,CLR,SKC,0.00,WeatherDisplay:10.37,2013-05-13 19:22:00,
2013-05-13 15:27:00,53.7,27.4,29.99,NE,41,6.9,6.9,36,0.00,CLR,SKC,0.00,WeatherDisplay:10.37,2013-05-13 19:27:00,
2013-05-13 15:32:00,54.3,31.1,29.99,West,279,10.3,10.3,41,0.00,CLR,SKC,0.00,WeatherDisplay:10.37,2013-05-13 19:32:00,
2013-05-13 15:37:00,54.8,28.3,29.99,NE,34,7.0,7.0,36,0.00,CLR,SKC,0.00,WeatherDisplay:10.37,2013-05-13 19:37:00,
2013-05-13 15:42:00,55.0,28.5,29.99,NNE,32,11.5,11.5,36,0.00,CLR,SKC,0.00,WeatherDisplay:10.37,2013-05-13 19:42:00,
2013-05-13 15:47:00,54.9,28.4,29.99,NNE,28,3.4,3.4,36,0.00,CLR,SKC,0.00,WeatherDisplay:10.37,2013-05-13 19:47:00,
2013-05-13 15:52:00,54.9,29.7,29.98,ENE,62,6.0,6.0,38,0.00,CLR,SKC,0.00,WeatherDisplay:10.37,2013-05-13 19:52:00,
2013-05-13 15:57:00,55.0,28.5,29.98,NNW,328,9.2,9.2,36,0.00,CLR,SKC,0.00,WeatherDisplay:10.37,2013-05-13 19:57:00,
2013-05-13 16:02:00,55.3,28.1,29.98,NNE,28,6.9,6.9,35,0.00,CLR,SKC,0.00,WeatherDisplay:10.37,2013-05-13 20:02:00,
2013-05-13 16:07:00,55.5,29.6,29.98,NNE,26,6.9,6.9,37,0.00,CLR,SKC,0.00,WeatherDisplay:10.37,2013-05-13 20:07:00,
2013-05-13 16:12:00,55.3,27.4,29.98,NNE,30,6.9,6.9,34,0.00,CLR,SKC,0.00,WeatherDisplay:10.37,2013-05-13 20:12:00,
2013-05-13 16:17:00,55.0,28.5,29.98,NE,56,10.3,10.3,36,0.00,CLR,SKC,0.00,WeatherDisplay:10.37,2013-05-13 20:17:00,
2013-05-13 16:22:00,54.8,30.3,29.98,NNE,32,5.8,5.8,39,0.00,CLR,SKC,0.00,WeatherDisplay:10.37,2013-05-13 20:22:00,
2013-05-13 16:27:00,55.3,28.8,29.98,WNW,292,6.0,6.0,36,0.00,CLR,SKC,0.00,WeatherDisplay:10.37,2013-05-13 20:27:00,
2013-05-13 16:32:00,55.8,30.5,29.98,NE,35,3.4,3.4,38,0.00,CLR,SKC,0.00,WeatherDisplay:10.37,2013-05-13 20:32:00,
2013-05-13 16:37:00,55.3,28.1,29.98,NE,40,6.9,6.9,35,0.00,CLR,SKC,0.00,WeatherDisplay:10.37,2013-05-13 20:37:00,
2013-05-13 16:42:00,54.8,29.0,29.98,NNE,18,3.4,3.4,37,0.00,CLR,SKC,0.00,WeatherDisplay:10.37,2013-05-13 20:42:00,
2013-05-13 16:47:00,54.4,27.3,29.98,NNE,12,4.6,4.6,35,0.00,CLR,SKC,0.00,WeatherDisplay:10.37,2013-05-13 20:47:00,
2013-05-13 16:52:00,54.3,27.9,29.98,North,355,4.6,4.6,36,0.00,CLR,SKC,0.00,WeatherDisplay:10.37,2013-05-13 20:52:00,
2013-05-13 16:57:00,54.2,27.8,29.98,North,355,6.9,6.9,36,0.00,CLR,SKC,0.00,WeatherDisplay:10.37,2013-05-13 20:57:00,
2013-05-13 17:02:00,53.7,28.7,29.98,ENE,59,2.3,2.3,38,0.00,CLR,SKC,0.00,WeatherDisplay:10.37,2013-05-13 21:02:00,
2013-05-13 17:07:00,53.8,29.4,29.98,NNE,14,5.8,5.8,39,0.00,CLR,SKC,0.00,WeatherDisplay:10.37,2013-05-13 21:07:00,
2013-05-13 17:12:00,54.5,30.0,29.98,North,350,8.1,8.1,39,0.00,CLR,SKC,0.00,WeatherDisplay:10.37,2013-05-13 21:12:00,
2013-05-13 17:17:00,54.5,28.7,29.99,NNW,329,9.0,9.0,37,0.00,CLR,SKC,0.00,WeatherDisplay:10.37,2013-05-13 21:17:00,
2013-05-13 17:22:00,53.7,28.0,29.99,NE,36,5.8,5.8,37,0.00,CLR,SKC,0.00,WeatherDisplay:10.37,2013-05-13 21:22:00,
2013-05-13 17:27:00,53.0,27.4,29.99,NNW,334,4.6,4.6,37,0.00,CLR,SKC,0.00,WeatherDisplay:10.37,2013-05-13 21:27:00,
2013-05-13 17:32:00,52.5,28.8,29.99,NNE,24,3.4,3.4,40,0.00,CLR,SKC,0.00,WeatherDisplay:10.37,2013-05-13 21:32:00,
2013-05-13 17:37:00,52.2,28.0,29.99,NNE,22,6.9,6.9,39,0.00,CLR,SKC,0.00,WeatherDisplay:10.37,2013-05-13 21:37:00,
2013-05-13 17:42:00,52.2,28.6,29.99,NNW,334,3.4,4.6,40,0.00,CLR,SKC,0.00,WeatherDisplay:10.37,2013-05-13 21:42:00,
2013-05-13 17:47:00,52.3,28.7,29.99,WNW,303,4.0,4.0,40,0.00,CLR,SKC,0.00,WeatherDisplay:10.37,2013-05-13 21:47:00,
2013-05-13 17:52:00,52.3,29.3,29.99,NNE,31,5.8,5.8,41,0.00,CLR,SKC,0.00,WeatherDisplay:10.37,2013-05-13 21:52:00,
2013-05-13 17:57:00,52.1,28.5,29.99,ENE,61,6.9,6.9,40,0.00,CLR,SKC,0.00,WeatherDisplay:10.37,2013-05-13 21:57:00,
2013-05-13 18:02:00,51.9,28.9,29.99,North,360,8.1,8.1,41,0.00,CLR,SKC,0.00,WeatherDisplay:10.37,2013-05-13 22:02:00,
2013-05-13 18:07:00,51.7,27.5,29.99,NE,46,9.2,9.2,39,0.00,CLR,SKC,0.00,WeatherDisplay:10.37,2013-05-13 22:07:00,
2013-05-13 18:12:00,51.6,28.0,30.00,NE,37,8.1,8.1,40,0.00,CLR,SKC,0.00,WeatherDisplay:10.37,2013-05-13 22:12:00,
2013-05-13 18:17:00,51.4,27.9,30.00,NNW,336,9.2,9.2,40,0.00,CLR,SKC,0.00,WeatherDisplay:10.37,2013-05-13 22:17:00,
2013-05-13 18:22:00,51.4,28.5,30.00,NE,38,4.6,4.6,41,0.00,CLR,SKC,0.00,WeatherDisplay:10.37,2013-05-13 22:22:00,
2013-05-13 18:27:00,51.3,29.5,30.00,NNE,32,3.4,3.4,43,0.00,CLR,SKC,0.00,WeatherDisplay:10.37,2013-05-13 22:27:00,
2013-05-13 18:32:00,51.3,27.8,30.00,NE,50,4.6,4.6,40,0.00,CLR,SKC,0.00,WeatherDisplay:10.37,2013-05-13 22:32:00,
2013-05-13 18:37:00,51.4,29.1,30.00,NNE,30,3.4,3.4,42,0.00,CLR,SKC,0.00,WeatherDisplay:10.37,2013-05-13 22:37:00,
2013-05-13 18:42:00,51.4,29.1,30.00,NE,43,3.4,3.4,42,0.00,CLR,SKC,0.00,WeatherDisplay:10.37,2013-05-13 22:42:00,
2013-05-13 18:47:00,51.4,27.9,30.00,ENE,59,2.3,2.3,40,0.00,CLR,SKC,0.00,WeatherDisplay:10.37,2013-05-13 22:47:00,
2013-05-13 18:52:00,51.3,28.4,30.00,North,11,5.0,5.0,41,0.00,CLR,SKC,0.00,WeatherDisplay:10.37,2013-05-13 22:52:00,
2013-05-13 18:57:00,51.2,28.3,30.00,North,350,4.0,4.0,41,0.00,CLR,SKC,0.00,WeatherDisplay:10.37,2013-05-13 22:57:00,
2013-05-13 19:02:00,51.2,28.3,30.00,NNW,336,2.3,2.3,41,0.00,CLR,SKC,0.00,WeatherDisplay:10.37,2013-05-13 23:02:00,
2013-05-13 19:07:00,51.3,29.0,30.01,North,355,5.0,5.0,42,0.00,CLR,SKC,0.00,WeatherDisplay:10.37,2013-05-13 23:07:00,
2013-05-13 19:12:00,51.1,28.8,30.01,NNE,28,3.4,3.4,42,0.00,CLR,SKC,0.00,WeatherDisplay:10.37,2013-05-13 23:12:00,
2013-05-13 19:17:00,50.9,28.6,30.01,NNE,21,3.4,3.4,42,0.00,CLR,SKC,0.00,WeatherDisplay:10.37,2013-05-13 23:17:00,
2013-05-13 19:22:00,50.7,27.8,30.01,WNW,284,3.4,3.4,41,0.00,CLR,SKC,0.00,WeatherDisplay:10.37,2013-05-13 23:22:00,
2013-05-13 19:27:00,50.5,28.2,30.01,ENE,64,2.3,2.3,42,0.00,CLR,SKC,0.00,WeatherDisplay:10.37,2013-05-13 23:27:00,
2013-05-13 19:32:00,50.1,28.4,30.01,NE,53,3.4,3.4,43,0.00,CLR,SKC,0.00,WeatherDisplay:10.37,2013-05-13 23:32:00,
2013-05-13 19:37:00,49.9,28.3,30.01,North,350,3.4,3.4,43,0.00,CLR,SKC,0.00,WeatherDisplay:10.37,2013-05-13 23:37:00,
2013-05-13 19:42:00,49.5,28.5,30.01,NW,309,4.6,4.6,44,0.00,CLR,SKC,0.00,WeatherDisplay:10.37,2013-05-13 23:42:00,
2013-05-13 19:47:00,49.2,28.7,30.02,NNE,16,4.6,4.6,45,0.00,CLR,SKC,0.00,WeatherDisplay:10.37,2013-05-13 23:47:00,
2013-05-13 19:52:00,49.0,28.6,30.02,ENE,57,1.1,0.0,45,0.00,CLR,SKC,0.00,WeatherDisplay:10.37,2013-05-13 23:52:00,
2013-05-13 19:57:00,48.9,29.5,30.02,ENE,57,0.0,0.0,47,0.00,CLR,SKC,0.00,WeatherDisplay:10.37,2013-05-13 23:57:00,
2013-05-13 20:02:00,48.6,28.7,30.02,NE,34,3.0,3.0,46,0.00,CLR,SKC,0.00,WeatherDisplay:10.37,2013-05-14 00:02:00,
2013-05-13 20:07:00,48.4,29.1,30.02,NE,34,0.0,0.1,47,0.00,CLR,SKC,0.00,WeatherDisplay:10.37,2013-05-14 00:07:00,
2013-05-13 20:12:00,48.3,30.0,30.02,ENE,58,1.1,1.1,49,0.00,CLR,SKC,0.00,WeatherDisplay:10.37,2013-05-14 00:12:00,
2013-05-13 20:17:00,48.3,29.5,30.02,NE,55,1.1,2.3,48,0.00,CLR,SKC,0.00,WeatherDisplay:10.37,2013-05-14 00:17:00,
2013-05-13 20:22:00,48.2,28.9,30.02,ENE,58,0.0,0.0,47,0.00,CLR,SKC,0.00,WeatherDisplay:10.37,2013-05-14 00:22:00,
2013-05-13 20:27:00,48.2,28.9,30.03,East,88,2.3,2.3,47,0.00,CLR,SKC,0.00,WeatherDisplay:10.37,2013-05-14 00:27:00,
2013-05-13 20:32:00,48.1,28.8,30.03,NNE,15,2.3,2.3,47,0.00,CLR,SKC,0.00,WeatherDisplay:10.37,2013-05-14 00:32:00,
2013-05-13 20:37:00,48.1,28.8,30.03,WNW,298,0.0,0.0,47,0.00,CLR,SKC,0.00,WeatherDisplay:10.37,2013-05-14 00:37:00,
2013-05-13 20:42:00,48.0,29.2,30.03,NE,42,4.6,4.6,48,0.00,CLR,SKC,0.00,WeatherDisplay:10.37,2013-05-14 00:42:00,
2013-05-13 20:47:00,47.8,29.0,30.03,NE,53,0.0,0.0,48,0.00,CLR,SKC,0.00,WeatherDisplay:10.37,2013-05-14 00:47:00,
2013-05-13 20:52:00,47.6,29.4,30.04,NE,41,3.4,3.4,49,0.00,CLR,SKC,0.00,WeatherDisplay:10.37,2013-05-14 00:52:00,
2013-05-13 20:57:00,47.3,29.1,30.04,NE,54,1.1,0.0,49,0.00,CLR,SKC,0.00,WeatherDisplay:10.37,2013-05-14 00:57:00,
2013-05-13 21:02:00,47.1,29.4,30.04,NNE,23,3.4,3.4,50,0.00,CLR,SKC,0.00,WeatherDisplay:10.37,2013-05-14 01:02:00,
2013-05-13 21:07:00,47.0,29.3,30.04,NE,36,4.0,4.0,50,0.00,CLR,SKC,0.00,WeatherDisplay:10.37,2013-05-14 01:07:00,
2013-05-13 21:12:00,46.9,29.7,30.05,NNW,327,0.0,0.9,51,0.00,CLR,SKC,0.00,WeatherDisplay:10.37,2013-05-14 01:12:00,
2013-05-13 21:17:00,46.9,29.7,30.05,North,355,0.0,0.0,51,0.00,CLR,SKC,0.00,WeatherDisplay:10.37,2013-05-14 01:17:00,
2013-05-13 21:22:00,46.8,30.1,30.05,North,355,0.0,0.0,52,0.00,CLR,SKC,0.00,WeatherDisplay:10.37,2013-05-14 01:22:00,
2013-05-13 21:27:00,46.6,29.4,30.05,North,355,0.0,0.0,51,0.00,CLR,SKC,0.00,WeatherDisplay:10.37,2013-05-14 01:27:00,
2013-05-13 21:32:00,46.4,30.2,30.05,North,355,4.0,4.0,53,0.00,CLR,SKC,0.00,WeatherDisplay:10.37,2013-05-14 01:32:00,
2013-05-13 21:37:00,46.1,29.4,30.05,NNE,30,1.1,0.0,52,0.00,CLR,SKC,0.00,WeatherDisplay:10.37,2013-05-14 01:37:00,
2013-05-13 21:42:00,45.9,29.7,30.06,NNE,30,0.0,0.0,53,0.00,CLR,SKC,0.00,WeatherDisplay:10.37,2013-05-14 01:42:00,
2013-05-13 21:47:00,45.6,29.4,30.06,NNE,30,0.0,0.0,53,0.00,CLR,SKC,0.00,WeatherDisplay:10.37,2013-05-14 01:47:00,
2013-05-13 21:52:00,45.4,29.7,30.06,NNE,26,3.4,3.4,54,0.00,CLR,SKC,0.00,WeatherDisplay:10.37,2013-05-14 01:52:00,
2013-05-13 21:57:00,45.1,29.9,30.06,NNE,26,0.0,0.0,55,0.00,CLR,SKC,0.00,WeatherDisplay:10.37,2013-05-14 01:57:00,
2013-05-13 22:02:00,44.8,30.0,30.07,NNE,26,0.0,0.0,56,0.00,CLR,SKC,0.00,WeatherDisplay:10.37,2013-05-14 02:02:00,
2013-05-13 22:07:00,44.5,30.2,30.07,NNE,26,0.0,0.0,57,0.00,CLR,SKC,0.00,WeatherDisplay:10.37,2013-05-14 02:07:00,
2013-05-13 22:12:00,44.2,30.8,30.07,NNE,26,0.0,0.0,59,0.00,CLR,SKC,0.00,WeatherDisplay:10.37,2013-05-14 02:12:00,
2013-05-13 22:17:00,43.8,30.8,30.08,NNE,26,0.0,0.0,60,0.00,CLR,SKC,0.00,WeatherDisplay:10.37,2013-05-14 02:17:00,
2013-05-13 22:22:00,43.4,30.4,30.08,NNE,26,0.0,0.0,60,0.00,CLR,SKC,0.00,WeatherDisplay:10.37,2013-05-14 02:22:00,
2013-05-13 22:27:00,43.1,30.1,30.08,NNE,26,0.0,0.0,60,0.00,CLR,SKC,0.00,WeatherDisplay:10.37,2013-05-14 02:27:00,
2013-05-13 22:32:00,42.8,30.3,30.08,NNE,26,0.0,0.0,61,0.00,CLR,SKC,0.00,WeatherDisplay:10.37,2013-05-14 02:32:00,
2013-05-13 22:37:00,42.4,29.9,30.08,NNE,26,0.0,0.0,61,0.00,CLR,SKC,0.00,WeatherDisplay:10.37,2013-05-14 02:37:00,
2013-05-13 22:42:00,42.1,30.0,30.08,NNE,26,0.0,0.0,62,0.00,CLR,SKC,0.00,WeatherDisplay:10.37,2013-05-14 02:42:00,
2013-05-13 22:47:00,41.8,29.7,30.08,NNE,26,0.0,0.0,62,0.00,CLR,SKC,0.00,WeatherDisplay:10.37,2013-05-14 02:47:00,
2013-05-13 22:52:00,41.5,29.8,30.08,NNE,26,0.0,0.0,63,0.00,CLR,SKC,0.00,WeatherDisplay:10.37,2013-05-14 02:52:00,
2013-05-13 22:57:00,41.2,29.9,30.08,NNE,26,0.0,0.0,64,0.00,CLR,SKC,0.00,WeatherDisplay:10.37,2013-05-14 02:57:00,
2013-05-13 23:02:00,40.8,29.9,30.08,NNE,26,0.0,0.0,65,0.00,CLR,SKC,0.00,WeatherDisplay:10.37,2013-05-14 03:02:00,
2013-05-13 23:07:00,40.5,30.4,30.09,NNE,26,0.0,0.0,67,0.00,CLR,SKC,0.00,WeatherDisplay:10.37,2013-05-14 03:07:00,
2013-05-13 23:12:00,40.2,30.5,30.09,NNE,26,0.0,0.0,68,0.00,CLR,SKC,0.00,WeatherDisplay:10.37,2013-05-14 03:12:00,
2013-05-13 23:17:00,39.9,30.5,30.09,NNE,26,0.0,0.0,69,0.00,CLR,SKC,0.00,WeatherDisplay:10.37,2013-05-14 03:17:00,
2013-05-13 23:22:00,39.5,30.5,30.09,NNE,26,0.0,0.0,70,0.00,CLR,SKC,0.00,WeatherDisplay:10.37,2013-05-14 03:22:00,
2013-05-13 23:27:00,39.2,30.2,30.09,NNE,26,0.0,0.0,70,0.00,CLR,SKC,0.00,WeatherDisplay:10.37,2013-05-14 03:27:00,
2013-05-13 23:32:00,38.9,30.6,30.09,NNE,26,0.0,0.0,72,0.00,CLR,SKC,0.00,WeatherDisplay:10.37,2013-05-14 03:32:00,
2013-05-13 23:37:00,38.6,31.0,30.09,NNE,26,0.0,0.0,74,0.00,CLR,SKC,0.00,WeatherDisplay:10.37,2013-05-14 03:37:00,
2013-05-13 23:42:00,38.4,31.2,30.09,NNE,26,0.0,0.0,75,0.00,CLR,SKC,0.00,WeatherDisplay:10.37,2013-05-14 03:42:00,
2013-05-13 23:47:00,38.1,30.9,30.10,NNE,26,0.0,0.0,75,0.00,CLR,SKC,0.00,WeatherDisplay:10.37,2013-05-14 03:47:00,
2013-05-13 23:52:00,37.9,31.0,30.10,NNE,26,0.0,0.0,76,0.00,CLR,SKC,0.00,WeatherDisplay:10.37,2013-05-14 03:52:00,
2013-05-13 23:57:00,37.6,31.0,30.10,NNE,26,0.0,0.0,77,0.00,CLR,SKC,0.00,WeatherDisplay:10.37,2013-05-14 03:57:00,